Location: Newark
(13.6797°N, 8.5297°E)
Time: 19:45:51
(UTC+00:00)

LightSail 2 - Pass Details

Date: 10 December 2019
Orbit: 704 x 719 km, 24.0° (Epoch: 23 January)

Event Time Altitude Azimuth Distance (km) Brightness Sun altitude
Rises 17:46:45 0° 296° (WNW) 3,096 9.1 -11.6°
Reaches altitude 10° 17:49:15 10° 301° (WNW) 2,174 8.2 -12.2°
Maximum altitude 17:54:14 50° 17° (NNE) 891 5.4 -13.3°
Enters shadow 17:57:33 20° 85° (E) 1,595 6.4 -14.1°
